星链-11435 (STARLINK-11435)

导读 | 豆包AI

STARLINK-11435是美国太空探索技术公司(SpaceX)星链(Starlink)互联网星座项目的组网卫星,于2025年2月4日发射升空,属于星链第二代卫星。该卫星由SpaceX火箭送入近地轨道,旨在补充扩大星链星座全球覆盖规模,为全球用户提供高速低延迟的卫星互联网服务,进一步推进星链项目的组网部署进度。

基本信息
目录编号:
62891
目录名称:
STARLINK-11435
国际标识:
2025-024N
轨道中心:
EARTH
卫星名称:
星链-11435
卫星全名:
星链-11435 (STARLINK-11435)
卫星状态:
在轨 (已飞行404 天)
发射日期:
2025-02-04 UTC
国别 :
美国 (US)
星等 :
--
轨道信息
数据来源 国际轨道数据
星历时间: 2026-03-14T22:13:57+0800
11小时前
查看轨道信息
半长轴: 6734.018km
偏心率: 0.0001467
轨道倾角: 43.000°
近地点辐角 294.190°
升交点赤经 152.266°
平近点角 65.882°
近地点: 354.893km
远地点: 356.869km
周期: 91.658分钟
每日圈数: 15.71055
详细信息
固有亮度:
5
最大亮度:
2.5
卫星平台:
Starlink V1.0
覆盖范围:
全球
运营商:
太空探索技术公司
运营商所在国:
美国
制造商(研发单位):
太空探索技术公司
制造商所在国:
美国
使用方式:
暂无
卫星简介
Starlink 计划是 SpaceX 推出的全球卫星互联网项目,通过发射低轨道卫星,为全球尤其是偏远地区提供高速、低延迟的互联网服务。自 2019 年起,Starlink 已部署数千颗卫星,旨在缩小全球数字鸿沟,推动互联网普及。该项目还为军事、航空等行业提供通信支持,带来广泛经济效益。
2D轨道图
3D轨道图
轨道高度分析图
轨道倾角分析图
轨道综合分析图
查看轨道综合分析图